This demonstration page uses our WeatherBlox Daily Observations layout. Learn more.

Left ArrowRight Arrow

36.19886, -115.1175

Hourly Observations for July 28, 2015

Temp ( °F °C ) Dew Point ( °F °C ) Humidity (%) Winds ( mph kmh ) Pressure ( in mb ) Visibility ( mi km ) Precip ( " mm )
12:53 am 00:53 Clear 84 28.9 32 0 15 15 N 9 15 29.80 1009 10 16 0.00 0.00
1:53 am 01:53 Clear 83 28.3 28 -2.2 13 13 N 6 9 29.80 1009 10 16 0.00 0.00
2:53 am 02:53 Clear 80 26.7 26 -3.3 14 14 NW 5 7 29.80 1009 10 16 0.00 0.00
3:53 am 03:53 Clear 79 26.1 27 -2.8 15 15 N 8 13 29.81 1010 10 16 0.00 0.00
4:53 am 04:53 Clear 80 26.7 22 -5.6 11 11 N 10 17 29.84 1010 10 16 0.00 0.00
5:53 am 05:53 Sunny 80 26.7 23 -5 12 12 N 8 13 29.86 1011 10 16 0.00 0.00
6:53 am 06:53 Sunny 81 27.2 27 -2.8 14 14 NNE 8 13 29.89 1012 10 16 0.00 0.00
7:53 am 07:53 Sunny 84 29 30 -1 14 14 N 8 13 29.80 1009 10 16 0.00 0.00
8:53 am 08:53 Sunny 89 31.7 32 0 13 13 VRB 6 9 29.92 1013 10 16 0.00 0.00
9:53 am 09:53 Sunny 91 32.8 33 0.6 13 13 Calm 29.92 1013 10 16 0.00 0.00
10:53 am 10:53 Sunny 93 33.9 33 0.6 12 12 E 9 15 29.92 1013 10 16 0.00 0.00
11:53 am 11:53 Sunny 95 35 32 0 11 11 VRB 3 6 29.92 1013 10 16 0.00 0.00
12:53 pm 12:53 Sunny 97 36.1 33 0.6 10 10 E 9 15 29.90 1013 10 16 0.00 0.00
1:53 pm 13:53 Sunny 98 36.7 32 0 10 10 N 5 7 29.88 1012 10 16 0.00 0.00
2:53 pm 14:53 Sunny 100 37.8 31 -0.6 9 9 SSE 9 15 29.86 1011 10 16 0.00 0.00
3:53 pm 15:53 Sunny 99 37.2 30 -1.1 9 9 SSE 6 9 29.83 1010 10 16 0.00 0.00
4:53 pm 16:53 Sunny 101 38.3 30 -1.1 8 8 SSE 7 11 29.81 1010 10 16 0.00 0.00
5:53 pm 17:53 Sunny 100 37.8 30 -1.1 8 8 SSE 8 13 29.80 1009 10 16 0.00 0.00
6:53 pm 18:53 Sunny 100 37.8 30 -1.1 8 8 ENE 5 7 29.80 1009 10 16 0.00 0.00
7:53 pm 19:53 Clear 98 36.7 29 -1.7 9 9 E 3 6 29.80 1009 10 16 0.00 0.00
8:53 pm 20:53 Clear 96 35.6 31 -0.6 10 10 Calm 29.83 1010 10 16 0.00 0.00
9:53 pm 21:53 Clear 94 34.4 36 2.2 13 13 W 5 7 29.86 1011 10 16 0.00 0.00
10:53 pm 22:53 Clear 90 32.2 38 3.3 16 16 NW 6 9 29.87 1012 10 16 0.00 0.00
11:53 pm 23:53 Clear 87 30.6 38 3.3 18 18 NNW 3 6 29.88 1012 10 16 0.00 0.00

Powered by AerisWeather